Weather History for Topeka Forbes, KS

Change the Weather History Date:

Monday, October 8, 2012

  Actual Average Record
Temperature  
Mean Temperature 50 °F -  
Max Temperature 66 °F 70 °F 91 °F (1980)
Min Temperature 34 °F 45 °F 23 °F (2000)
Degree Days  
Heating Degree Days 15    
Moisture  
Dew Point 32 °F    
Average Humidity 54    
Maximum Humidity 82    
Minimum Humidity 28    
Precipitation  
Precipitation 0.00 in - - ()
Sea Level Pressure  
Sea Level Pressure 30.04 in    
Wind  
Wind Speed 10 mph (SSW)    
Max Wind Speed 21 mph    
Max Gust Speed 29 mph    
Visibility 10 miles    
Events      
Averages and records for this station are not official NWS values.
T = Trace of Precipitation, MM = Missing Value Source: NWS Daily Summary

Daily Weather History Graph

Daily Weather History Graph

Search for Another Location

Airport:

Trip Planner

Search our weather history database for the weather conditions in past years. The results will help you decide how hot, cold, wet, or windy it might be!

Date:

Astronomy

Oct. 08, 2012 Rise Set
Actual Time 7:25 AM CDT 6:53 PM CDT
Civil Twilight 6:59 AM CDT 7:20 PM CDT
Nautical Twilight 6:28 AM CDT 7:51 PM CDT
Astronomical Twilight 5:57 AM CDT 8:22 PM CDT
Moon 12:09 AM CDT (10/8) 2:40 PM CDT (10/8)
Length of Visible Light 12h 21m
Length of Day
11h 27m
Last Quarter, 46% of the Moon is Illuminated
Oct 8
Last Quarter
Oct 15
New
Oct 21
First Quarter
Oct 29
Full
Nov 6
Last Quarter

Hourly Weather History & Observations

Time (CDT) Temp. Windchill Dew Point Humidity Pressure Visibility Wind Dir Wind Speed Gust Speed Precip Events Conditions
12:53 AM 35.1 °F 31.0 °F 28.0 °F 76% 30.14 in 10.0 mi SSW 4.6 mph - N/A   Clear
1:53 AM 35.1 °F 29.3 °F 28.9 °F 78% 30.14 in 10.0 mi South 6.9 mph - N/A   Clear
2:53 AM 34.0 °F 28.0 °F 28.9 °F 82% 30.13 in 10.0 mi South 6.9 mph - N/A   Clear
3:53 AM 35.1 °F 28.6 °F 28.9 °F 78% 30.11 in 10.0 mi SSW 8.1 mph - N/A   Clear
4:53 AM 37.0 °F 30.4 °F 28.9 °F 73% 30.11 in 10.0 mi SSW 9.2 mph - N/A   Clear
5:53 AM 35.1 °F 28.6 °F 28.9 °F 78% 30.11 in 10.0 mi SSW 8.1 mph - N/A   Clear
6:53 AM 35.1 °F 27.9 °F 28.9 °F 78% 30.11 in 10.0 mi SSW 9.2 mph - N/A   Clear
7:53 AM 36.0 °F 29.6 °F 30.0 °F 79% 30.11 in 10.0 mi South 8.1 mph - N/A   Clear
8:53 AM 42.1 °F 36.6 °F 32.0 °F 67% 30.11 in 10.0 mi SSW 9.2 mph - N/A   Clear
9:53 AM 48.9 °F - 34.0 °F 56% 30.10 in 10.0 mi SSW 15.0 mph 21.9 mph N/A   Clear
10:53 AM 55.9 °F - 34.0 °F 44% 30.08 in 10.0 mi South 12.7 mph 24.2 mph N/A   Clear
11:53 AM 59.0 °F - 34.0 °F 39% 30.06 in 10.0 mi South 17.3 mph 23.0 mph N/A   Clear
12:53 PM 62.1 °F - 34.0 °F 35% 30.04 in 10.0 mi South 19.6 mph 25.3 mph N/A   Clear
1:53 PM 66.0 °F - 34.0 °F 30% 30.00 in 10.0 mi SSW 20.7 mph 27.6 mph N/A   Clear
2:53 PM 66.0 °F - 34.0 °F 30% 29.97 in 10.0 mi SSW 18.4 mph 28.8 mph N/A   Clear
3:53 PM 66.9 °F - 34.0 °F 30% 29.95 in 10.0 mi SSW 17.3 mph 25.3 mph N/A   Clear
4:53 PM 66.9 °F - 33.1 °F 28% 29.93 in 10.0 mi SSW 20.7 mph 28.8 mph N/A   Clear
5:53 PM 64.9 °F - 33.1 °F 31% 29.93 in 10.0 mi South 13.8 mph - N/A   Clear
6:53 PM 60.1 °F - 34.0 °F 38% 29.94 in 10.0 mi South 9.2 mph - N/A   Clear
7:53 PM 57.0 °F - 35.1 °F 44% 29.94 in 10.0 mi SSE 9.2 mph - N/A   Clear
9:53 PM 53.1 °F - 35.1 °F 50% 29.95 in 10.0 mi South 10.4 mph - N/A   Clear
10:53 PM 53.1 °F - 35.1 °F 50% 29.94 in 10.0 mi South 12.7 mph 20.7 mph N/A   Clear
11:53 PM 52.0 °F - 36.0 °F 54% 29.93 in 10.0 mi South 13.8 mph - N/A   Clear